Location: ?astrovice
(49.6513°N, 14.9287°E)
Time: 23:28:54
(UTC+00:00)

Cosmos 1408 - Pass Details

Date: 09 April 2020
Orbit: 471 x 494 km, 82.6° (Epoch: 24 May)

Event Time Altitude Azimuth Distance (km) Brightness Sun altitude
Rises 19:06:52 0° 3° (N) 2,564 6.6 -13.1°
Reaches altitude 10° 19:09:30 10° 24° (NNE) 1,683 5.4 -13.5°
Maximum altitude 19:12:04 18° 68° (ENE) 1,273 4.3 -13.9°
Enters shadow 19:12:36 17° 79° (E) 1,292 4.3 -13.9°
